SWA2586 KLAS-KDEN

Flight info

Callsign SWA2586
Flight time N/A
Altitude 37000
Route GIDGT3 TUKRR BUMMP SSKII4
Aircraft B737/M-SDE2E3FGHIRWXY/LB1

Departure

Time 2026-05-04 19:47
Airport Harry Reid International Airport (KLAS)

Arrival

Time N/A
Airport Denver International Airport (KDEN)
Time Latitude Longitude Altitude Speed Heading
2026-05-04 19:16 36.08230 -115.15055 2116 ft 0 kts 337°
2026-05-04 19:32 36.08210 -115.15043 2120 ft 4 kts 324°
2026-05-04 19:32 36.08194 -115.15022 2118 ft 4 kts 277°
2026-05-04 19:33 36.08196 -115.15005 2117 ft 1 kts 226°
2026-05-04 19:33 36.08199 -115.15002 2120 ft 1 kts 226°
2026-05-04 19:35 36.08197 -115.15004 2117 ft 1 kts 226°
2026-05-04 19:35 36.08176 -115.15030 2118 ft 7 kts 225°
2026-05-04 19:35 36.08143 -115.15072 2121 ft 7 kts 225°
2026-05-04 19:36 36.08104 -115.15105 2122 ft 7 kts 203°
2026-05-04 19:36 36.08059 -115.15113 2125 ft 7 kts 180°
2026-05-04 19:36 36.08015 -115.15112 2126 ft 6 kts 179°
2026-05-04 19:36 36.07982 -115.15112 2127 ft 5 kts 179°
2026-05-04 19:37 36.07972 -115.15111 2128 ft 0 kts 179°
2026-05-04 19:38 36.07959 -115.15111 2127 ft 4 kts 179°
2026-05-04 19:39 36.07911 -115.15111 2127 ft 8 kts 180°
2026-05-04 19:39 36.07872 -115.15087 2127 ft 6 kts 98°
2026-05-04 19:39 36.07871 -115.15023 2124 ft 9 kts 91°
2026-05-04 19:39 36.07865 -115.14918 2124 ft 15 kts 95°
2026-05-04 19:40 36.07855 -115.14759 2120 ft 22 kts 94°
2026-05-04 19:40 36.07842 -115.14561 2118 ft 23 kts 95°
2026-05-04 19:40 36.07829 -115.14367 2118 ft 22 kts 94°
2026-05-04 19:40 36.07827 -115.14177 2116 ft 22 kts 89°
2026-05-04 19:41 36.07829 -115.13993 2120 ft 21 kts 89°
2026-05-04 19:41 36.07827 -115.13814 2123 ft 21 kts 90°
2026-05-04 19:41 36.07827 -115.13640 2122 ft 20 kts 90°
2026-05-04 19:41 36.07827 -115.13473 2125 ft 19 kts 90°
2026-05-04 19:42 36.07827 -115.13312 2126 ft 19 kts 90°
2026-05-04 19:42 36.07828 -115.13138 2120 ft 22 kts 90°
2026-05-04 19:42 36.07827 -115.12953 2119 ft 21 kts 90°
2026-05-04 19:42 36.07828 -115.12773 2115 ft 21 kts 89°
2026-05-04 19:43 36.07829 -115.12597 2114 ft 20 kts 89°
2026-05-04 19:43 36.07830 -115.12428 2117 ft 19 kts 89°
2026-05-04 19:43 36.07822 -115.12271 2118 ft 17 kts 114°
2026-05-04 19:43 36.07764 -115.12171 2119 ft 7 kts 128°
2026-05-04 19:44 36.07750 -115.12151 2120 ft 0 kts 132°
2026-05-04 19:46 36.07739 -115.12138 2121 ft 5 kts 141°
2026-05-04 19:46 36.07685 -115.12123 2124 ft 11 kts 182°
2026-05-04 19:46 36.07643 -115.12174 2124 ft 5 kts 269°
2026-05-04 19:47 36.07643 -115.12317 2121 ft 47 kts 269°
2026-05-04 19:47 36.07640 -115.13045 2123 ft 122 kts 270°
2026-05-04 19:47 36.07660 -115.14326 2316 ft 165 kts 266°
2026-05-04 19:47 36.07694 -115.15802 2951 ft 178 kts 265°
2026-05-04 19:48 36.07687 -115.17420 3449 ft 203 kts 265°
2026-05-04 19:48 36.07669 -115.18767 3744 ft 219 kts 266°
2026-05-04 19:48 36.07661 -115.19698 4081 ft 220 kts 266°
2026-05-04 19:48 36.07651 -115.21563 4989 ft 218 kts 266°
2026-05-04 19:49 36.07647 -115.23399 5862 ft 217 kts 265°
2026-05-04 19:49 36.07644 -115.25304 6658 ft 226 kts 267°
2026-05-04 19:49 36.08044 -115.27204 7516 ft 238 kts 295°
2026-05-04 19:49 36.09305 -115.28681 7850 ft 271 kts 334°
2026-05-04 19:50 36.11151 -115.29314 8631 ft 281 kts 345°
2026-05-04 19:50 36.13092 -115.29710 9608 ft 285 kts 359°
2026-05-04 19:50 36.15030 -115.29143 10418 ft 292 kts 28°
2026-05-04 19:50 36.16616 -115.27488 10830 ft 313 kts 56°
2026-05-04 19:51 36.17732 -115.25084 11254 ft 329 kts 69°
2026-05-04 19:51 36.18565 -115.22419 12068 ft 334 kts 73°
2026-05-04 19:51 36.19356 -115.19694 12979 ft 338 kts 75°
2026-05-04 19:51 36.19716 -115.16843 13844 ft 336 kts 93°
2026-05-04 19:52 36.19707 -115.13927 14628 ft 343 kts 94°
2026-05-04 19:52 36.19679 -115.10937 15317 ft 352 kts 95°
2026-05-04 19:52 36.19652 -115.07867 15983 ft 361 kts 95°
2026-05-04 19:52 36.19633 -115.04728 16738 ft 369 kts 94°
2026-05-04 19:53 36.19622 -115.01528 17468 ft 377 kts 94°
2026-05-04 19:53 36.19615 -114.98251 18155 ft 386 kts 94°
2026-05-04 19:53 36.19612 -114.94899 18782 ft 392 kts 94°
2026-05-04 19:53 36.19610 -114.91509 19505 ft 396 kts 94°
2026-05-04 19:54 36.19608 -114.88074 20195 ft 402 kts 94°
2026-05-04 19:54 36.19604 -114.84583 20807 ft 410 kts 94°
2026-05-04 19:54 36.19598 -114.81019 21434 ft 417 kts 94°
2026-05-04 19:54 36.19593 -114.77404 22120 ft 423 kts 94°
2026-05-04 19:55 36.19586 -114.73740 22809 ft 428 kts 94°
2026-05-04 19:55 36.19577 -114.70029 23457 ft 434 kts 94°
2026-05-04 19:55 36.19567 -114.66315 23974 ft 441 kts 95°
2026-05-04 19:55 36.19557 -114.62498 24492 ft 446 kts 95°
2026-05-04 19:56 36.19547 -114.58633 25029 ft 451 kts 95°
2026-05-04 19:56 36.19536 -114.54673 25555 ft 457 kts 96°
2026-05-04 19:56 36.19522 -114.50719 26055 ft 463 kts 96°
2026-05-04 19:56 36.19511 -114.46705 26555 ft 469 kts 96°
2026-05-04 19:57 36.19498 -114.42701 27052 ft 473 kts 97°
2026-05-04 19:57 36.19483 -114.38605 27540 ft 479 kts 97°
2026-05-04 19:57 36.19466 -114.34459 27972 ft 486 kts 97°
2026-05-04 19:57 36.19447 -114.30247 28402 ft 492 kts 97°
2026-05-04 19:58 36.19426 -114.25991 28925 ft 496 kts 98°
2026-05-04 19:58 36.19519 -114.21686 29416 ft 507 kts 92°
2026-05-04 19:58 36.19931 -114.17313 29866 ft 516 kts 88°
2026-05-04 19:58 36.20497 -114.12907 30221 ft 522 kts 86°
2026-05-04 19:59 36.21119 -114.08463 30606 ft 525 kts 86°
2026-05-04 19:59 36.21737 -114.03996 30957 ft 529 kts 87°
2026-05-04 19:59 36.22333 -113.99465 31218 ft 536 kts 88°
2026-05-04 19:59 36.22902 -113.94887 31545 ft 540 kts 88°
2026-05-04 20:00 36.23453 -113.90288 31973 ft 540 kts 88°
2026-05-04 20:00 36.23992 -113.85688 32511 ft 539 kts 89°
2026-05-04 20:00 36.24526 -113.81092 33002 ft 539 kts 89°
2026-05-04 20:00 36.25056 -113.76499 33416 ft 540 kts 89°
2026-05-04 20:01 36.25587 -113.71890 33832 ft 541 kts 89°
2026-05-04 20:01 36.26119 -113.67281 34251 ft 540 kts 89°
2026-05-04 20:01 36.26651 -113.62669 34602 ft 541 kts 88°
2026-05-04 20:01 36.27182 -113.58060 34966 ft 540 kts 88°
2026-05-04 20:02 36.27711 -113.53457 35357 ft 539 kts 88°
2026-05-04 20:02 36.28236 -113.48862 35740 ft 538 kts 88°
2026-05-04 20:02 36.28759 -113.44275 36047 ft 538 kts 88°
2026-05-04 20:02 36.29280 -113.39671 36259 ft 539 kts 87°
2026-05-04 20:03 36.29798 -113.35086 36610 ft 534 kts 87°
2026-05-04 20:03 36.30312 -113.30525 36840 ft 536 kts 86°
2026-05-04 20:03 36.30828 -113.25915 36795 ft 542 kts 86°
2026-05-04 20:03 36.31509 -113.21316 36807 ft 546 kts 74°
2026-05-04 20:04 36.32884 -113.16929 36873 ft 544 kts 66°